| time (UTC) | temp C | wind direction | speed KPH | gust KPH | rain 1hr cm | rain 24hr cm | rain mn cm | humidity % | barometer mb |
| 20260506203552 | 9 | 327 | 0.0 | 4.8 | 0.00 | 0.23 | 0.23 | 87 | 1010.4 |
| 20260506203140 | 9 | 327 | 1.6 | 4.8 | 0.00 | 0.23 | 0.23 | 87 | 1010.4 |
| 20260506202633 | 9 | 349 | 1.6 | 6.4 | 0.00 | 0.23 | 0.23 | 87 | 1010.4 |
| 20260506202129 | 9 | 337 | 1.6 | 6.4 | 0.00 | 0.23 | 0.23 | 87 | 1010.4 |
| 20260506201621 | 9 | 356 | 1.6 | 6.4 | 0.00 | 0.23 | 0.23 | 87 | 1010.4 |
| 20260506201114 | 9 | 334 | 1.6 | 6.4 | 0.00 | 0.23 | 0.23 | 87 | 1010.4 |
| 20260506200606 | 9 | 327 | 1.6 | 8.0 | 0.00 | 0.23 | 0.23 | 86 | 1010.3 |
| 20260506200059 | 9 | 1 | 1.6 | 8.0 | 0.00 | 0.23 | 0.23 | 86 | 1010.3 |
| 20260506195546 | 9 | 6 | 1.6 | 6.4 | 0.00 | 0.23 | 0.23 | 87 | 1010.3 |
| 20260506195038 | 9 | 6 | 1.6 | 6.4 | 0.00 | 0.23 | 0.23 | 86 | 1010.2 |
| 20260506194626 | 9 | 341 | 0.0 | 3.2 | 0.00 | 0.23 | 0.23 | 86 | 1010.2 |
| 20260506194128 | 9 | 356 | 0.0 | 4.8 | 0.00 | 0.23 | 0.23 | 86 | 1010.1 |
| 20260506194122 | 9 | 322 | 0.0 | 4.8 | 0.00 | 0.23 | 0.23 | 86 | 1010.1 |
| 20260506193108 | 9 | 351 | 1.6 | 6.4 | 0.00 | 0.23 | 0.23 | 86 | 1010.0 |
| 20260506192602 | 9 | 319 | 1.6 | 6.4 | 0.00 | 0.23 | 0.23 | 86 | 1009.9 |
| 20260506192057 | 9 | 1 | 1.6 | 4.8 | 0.00 | 0.23 | 0.23 | 85 | 1009.9 |
| 20260506191546 | 9 | 327 | 1.6 | 6.4 | 0.00 | 0.23 | 0.23 | 85 | 1009.8 |
| 20260506191244 | 9 | 333 | 0.0 | 4.8 | 0.00 | 0.23 | 0.23 | 85 | 1009.7 |
| 20260506191044 | 9 | 334 | 1.6 | 6.4 | 0.00 | 0.23 | 0.23 | 85 | 1009.8 |
| 20260506190640 | 9 | 332 | 0.0 | 6.4 | 0.00 | 0.23 | 0.23 | 85 | 1009.7 |
| 20260506190325 | 9 | 334 | 1.6 | 4.8 | 0.00 | 0.23 | 0.23 | 85 | 1009.7 |
| 20260506185610 | 9 | 346 | 1.6 | 4.8 | 0.00 | 0.23 | 0.23 | 85 | 1009.7 |
| 20260506184559 | 9 | 325 | 1.6 | 4.8 | 0.00 | 0.23 | 0.23 | 85 | 1009.6 |
| 20260506184051 | 9 | 13 | 0.0 | 3.2 | 0.00 | 0.23 | 0.23 | 85 | 1009.5 |
| 20260506183544 | 9 | 16 | 0.0 | 6.4 | 0.00 | 0.23 | 0.23 | 85 | 1009.5 |
| 20260506183032 | 9 | 350 | 1.6 | 8.0 | 0.00 | 0.23 | 0.23 | 84 | 1009.5 |
| 20260506182618 | 9 | 6 | 1.6 | 8.0 | 0.00 | 0.23 | 0.23 | 85 | 1009.3 |
| 20260506182113 | 9 | 1 | 1.6 | 8.0 | 0.00 | 0.23 | 0.23 | 84 | 1009.2 |
| 20260506181608 | 9 | 356 | 1.6 | 8.0 | 0.00 | 0.23 | 0.23 | 85 | 1009.2 |
| 20260506181602 | 9 | 33 | 3.2 | 8.0 | 0.00 | 0.23 | 0.23 | 85 | 1009.2 |
| 20260506180833 | 9 | 6 | 0.0 | 6.4 | 0.00 | 0.23 | 0.23 | 85 | 1009.1 |
| 20260506180059 | 9 | 345 | 1.6 | 6.4 | 0.00 | 0.23 | 0.23 | 85 | 1009.0 |
| 20260506175541 | 9 | 23 | 1.6 | 4.8 | 0.00 | 0.23 | 0.23 | 85 | 1009.0 |
| 20260506175034 | 9 | 64 | 3.2 | 11.3 | 0.00 | 0.23 | 0.23 | 85 | 1008.9 |
| 20260506174835 | 9 | 6 | 4.8 | 11.3 | 0.00 | 0.23 | 0.23 | 84 | 1008.9 |
| 20260506174110 | 9 | 343 | 4.8 | 9.7 | 0.00 | 0.23 | 0.23 | 84 | 1008.9 |
| 20260506173602 | 9 | 356 | 4.8 | 9.7 | 0.00 | 0.23 | 0.23 | 84 | 1008.8 |
| 20260506173054 | 10 | 12 | 4.8 | 9.7 | 0.00 | 0.23 | 0.23 | 84 | 1008.8 |
| 20260506172551 | 10 | 348 | 3.2 | 9.7 | 0.03 | 0.23 | 0.23 | 84 | 1008.7 |
| 20260506172546 | 10 | 6 | 3.2 | 9.7 | 0.03 | 0.23 | 0.23 | 84 | 1008.7 |
| 20260506171533 | 10 | 349 | 4.8 | 12.9 | 0.03 | 0.23 | 0.23 | 84 | 1008.6 |
| 20260506171030 | 10 | 356 | 6.4 | 12.9 | 0.03 | 0.23 | 0.23 | 84 | 1008.6 |
| 20260506170524 | 10 | 15 | 6.4 | 14.5 | 0.03 | 0.23 | 0.23 | 84 | 1008.6 |
| 20260506170325 | 10 | 34 | 6.4 | 14.5 | 0.03 | 0.23 | 0.23 | 84 | 1008.5 |
| 20260506165604 | 10 | 6 | 6.4 | 11.3 | 0.03 | 0.23 | 0.23 | 83 | 1008.5 |
| 20260506165056 | 10 | 324 | 3.2 | 11.3 | 0.03 | 0.23 | 0.23 | 84 | 1008.4 |
| 20260506164547 | 10 | 39 | 3.2 | 11.3 | 0.03 | 0.23 | 0.23 | 84 | 1008.3 |
| 20260506164055 | 10 | 28 | 3.2 | 9.7 | 0.03 | 0.23 | 0.23 | 83 | 1008.4 |
| 20260506163534 | 10 | 69 | 4.8 | 9.7 | 0.03 | 0.23 | 0.23 | 83 | 1008.3 |
| 20260506163026 | 10 | 6 | 4.8 | 9.7 | 0.03 | 0.23 | 0.23 | 82 | 1008.4 |
| 20260506162529 | 10 | 356 | 4.8 | 11.3 | 0.00 | 0.20 | 0.20 | 82 | 1008.4 |
| 20260506162015 | 10 | 6 | 4.8 | 12.9 | 0.00 | 0.20 | 0.20 | 82 | 1008.3 |
| 20260506161604 | 10 | 310 | 4.8 | 12.9 | 0.00 | 0.20 | 0.20 | 81 | 1008.3 |
| 20260506161110 | 10 | 18 | 6.4 | 17.7 | 0.00 | 0.20 | 0.20 | 82 | 1008.3 |
| 20260506160552 | 10 | 324 | 8.0 | 17.7 | 0.00 | 0.20 | 0.20 | 81 | 1008.3 |
| 20260506160053 | 10 | 356 | 4.8 | 16.1 | 0.00 | 0.20 | 0.20 | 80 | 1008.3 |
| 20260506155529 | 10 | 356 | 4.8 | 11.3 | 0.00 | 0.20 | 0.20 | 80 | 1008.3 |
| 20260506155024 | 10 | 349 | 6.4 | 12.9 | 0.00 | 0.20 | 0.20 | 80 | 1008.2 |
| 20260506154516 | 10 | 1 | 6.4 | 12.9 | 0.00 | 0.20 | 0.20 | 80 | 1008.2 |
| 20260506154011 | 10 | 318 | 6.4 | 12.9 | 0.00 | 0.20 | 0.20 | 79 | 1008.2 |
| 20260506154006 | 10 | 16 | 6.4 | 12.9 | 0.00 | 0.20 | 0.20 | 80 | 1008.2 |
| 20260506152955 | 11 | 332 | 4.8 | 12.9 | 0.00 | 0.20 | 0.20 | 79 | 1008.1 |
| 20260506152647 | 10 | 347 | 6.4 | 11.3 | 0.00 | 0.20 | 0.20 | 79 | 1008.0 |
| 20260506152643 | 10 | 1 | 4.8 | 11.3 | 0.00 | 0.20 | 0.20 | 79 | 1008.0 |
| 20260506152539 | 11 | 12 | 4.8 | 9.7 | 0.00 | 0.20 | 0.20 | 80 | 1008.1 |
| 20260506151018 | 10 | 1 | 6.4 | 12.9 | 0.00 | 0.20 | 0.20 | 79 | 1008.1 |
| 20260506150509 | 10 | 327 | 4.8 | 12.9 | 0.00 | 0.20 | 0.20 | 79 | 1008.1 |
| 20260506150000 | 10 | 6 | 6.4 | 12.9 | 0.00 | 0.20 | 0.20 | 78 | 1008.1 |
| 20260506145451 | 10 | 336 | 8.0 | 14.5 | 0.00 | 0.20 | 0.20 | 78 | 1008.1 |
| 20260506144942 | 10 | 11 | 6.4 | 14.5 | 0.00 | 0.20 | 0.20 | 78 | 1008.0 |
| 20260506144532 | 10 | 6 | 4.8 | 11.3 | 0.00 | 0.20 | 0.20 | 80 | 1008.1 |
| 20260506144024 | 10 | 27 | 4.8 | 11.3 | 0.00 | 0.20 | 0.20 | 81 | 1008.0 |
| 20260506143514 | 10 | 338 | 3.2 | 9.7 | 0.00 | 0.20 | 0.20 | 83 | 1008.0 |
| 20260506143006 | 10 | 308 | 3.2 | 9.7 | 0.00 | 0.20 | 0.20 | 83 | 1008.0 |
| 20260506142459 | 10 | 290 | 3.2 | 8.0 | 0.00 | 0.20 | 0.20 | 83 | 1008.0 |
| 20260506141949 | 10 | 338 | 3.2 | 9.7 | 0.00 | 0.20 | 0.20 | 83 | 1008.0 |
| 20260506141447 | 10 | 339 | 3.2 | 8.0 | 0.00 | 0.20 | 0.20 | 83 | 1008.0 |
| 20260506141443 | 10 | 338 | 3.2 | 9.7 | 0.00 | 0.20 | 0.20 | 84 | 1008.0 |
| 20260506140428 | 10 | 319 | 3.2 | 8.0 | 0.00 | 0.20 | 0.20 | 84 | 1008.0 |
| 20260506140019 | 10 | 31 | 4.8 | 8.0 | 0.00 | 0.20 | 0.20 | 85 | 1008.0 |
| 20260506135510 | 10 | 334 | 4.8 | 8.0 | 0.00 | 0.20 | 0.20 | 85 | 1008.0 |
| 20260506135002 | 10 | 1 | 4.8 | 9.7 | 0.00 | 0.20 | 0.20 | 85 | 1008.0 |
| 20260506134451 | 10 | 350 | 4.8 | 9.7 | 0.03 | 0.20 | 0.20 | 84 | 1008.0 |
| 20260506133942 | 10 | 334 | 3.2 | 9.7 | 0.03 | 0.20 | 0.20 | 85 | 1008.0 |
| 20260506133435 | 10 | 345 | 4.8 | 11.3 | 0.03 | 0.20 | 0.20 | 85 | 1008.0 |
| 20260506132925 | 10 | 327 | 4.8 | 11.3 | 0.03 | 0.20 | 0.20 | 84 | 1008.0 |
| 20260506132423 | 10 | 345 | 6.4 | 11.3 | 0.03 | 0.20 | 0.20 | 83 | 1007.9 |
| 20260506132418 | 10 | 324 | 4.8 | 8.0 | 0.03 | 0.20 | 0.20 | 84 | 1008.0 |
| 20260506131457 | 10 | 6 | 4.8 | 11.3 | 0.03 | 0.20 | 0.20 | 83 | 1007.9 |
| 20260506130949 | 10 | 356 | 4.8 | 12.9 | 0.03 | 0.20 | 0.20 | 85 | 1007.8 |
| 20260506130441 | 10 | 302 | 6.4 | 12.9 | 0.03 | 0.20 | 0.20 | 84 | 1007.8 |
| 20260506125936 | 10 | 334 | 6.4 | 12.9 | 0.03 | 0.20 | 0.20 | 84 | 1007.8 |
| 20260506125433 | 10 | 16 | 6.4 | 9.7 | 0.00 | 0.18 | 0.18 | 85 | 1007.8 |
| 20260506125428 | 10 | 321 | 4.8 | 11.3 | 0.03 | 0.20 | 0.20 | 85 | 1007.8 |
| 20260506124922 | 10 | 19 | 6.4 | 11.3 | 0.03 | 0.20 | 0.20 | 85 | 1007.8 |
| 20260506124618 | 10 | 356 | 6.4 | 12.9 | 0.00 | 0.18 | 0.18 | 84 | 1007.8 |
| 20260506123357 | 10 | 324 | 6.4 | 17.7 | 0.00 | 0.18 | 0.18 | 83 | 1007.7 |
| 20260506122948 | 10 | 45 | 6.4 | 17.7 | 0.00 | 0.18 | 0.18 | 83 | 1007.7 |
| 20260506122435 | 10 | 351 | 8.0 | 16.1 | 0.00 | 0.18 | 0.18 | 83 | 1007.6 |
| 20260506121930 | 10 | 1 | 6.4 | 12.9 | 0.00 | 0.18 | 0.18 | 84 | 1007.6 |
| 20260506121420 | 10 | 356 | 4.8 | 11.3 | 0.00 | 0.18 | 0.18 | 84 | 1007.5 |
| 20260506120911 | 10 | 345 | 6.4 | 12.9 | 0.00 | 0.18 | 0.18 | 83 | 1007.6 |
| 20260506120408 | 10 | 16 | 6.4 | 12.9 | 0.00 | 0.18 | 0.18 | 85 | 1007.5 |
| 20260506120404 | 10 | 343 | 6.4 | 19.3 | 0.00 | 0.18 | 0.18 | 84 | 1007.6 |
| 20260506115854 | 10 | 356 | 6.4 | 19.3 | 0.00 | 0.18 | 0.18 | 83 | 1007.5 |
| 20260506114837 | 10 | 11 | 6.4 | 12.9 | 0.00 | 0.18 | 0.18 | 85 | 1007.5 |
| 20260506114431 | 10 | 25 | 6.4 | 14.5 | 0.00 | 0.18 | 0.18 | 87 | 1007.5 |
| 20260506114426 | 10 | 27 | 6.4 | 12.9 | 0.00 | 0.18 | 0.18 | 85 | 1007.5 |
| 20260506113918 | 10 | 43 | 6.4 | 12.9 | 0.00 | 0.18 | 0.18 | 86 | 1007.5 |
| 20260506112906 | 10 | 1 | 6.4 | 14.5 | 0.00 | 0.18 | 0.18 | 87 | 1007.4 |
| 20260506112400 | 10 | 321 | 6.4 | 17.7 | 0.00 | 0.18 | 0.18 | 88 | 1007.4 |
| 20260506112356 | 10 | 18 | 4.8 | 12.9 | 0.00 | 0.18 | 0.18 | 87 | 1007.4 |
| 20260506111341 | 10 | 16 | 4.8 | 17.7 | 0.00 | 0.18 | 0.18 | 88 | 1007.4 |
| 20260506110834 | 10 | 328 | 3.2 | 12.9 | 0.00 | 0.18 | 0.18 | 88 | 1007.3 |
| 20260506110324 | 10 | 326 | 3.2 | 9.7 | 0.03 | 0.18 | 0.18 | 89 | 1007.2 |
| 20260506105822 | 10 | 30 | 4.8 | 12.9 | 0.03 | 0.18 | 0.18 | 89 | 1007.3 |
| 20260506105412 | 10 | 10 | 6.4 | 12.9 | 0.03 | 0.18 | 0.18 | 89 | 1007.3 |
| 20260506104909 | 10 | 6 | 3.2 | 19.3 | 0.03 | 0.18 | 0.18 | 90 | 1007.3 |
| 20260506104905 | 10 | 301 | 4.8 | 12.9 | 0.03 | 0.18 | 0.18 | 89 | 1007.3 |
| 20260506103852 | 9 | 26 | 3.2 | 19.3 | 0.03 | 0.18 | 0.18 | 90 | 1007.3 |
| 20260506103343 | 9 | 14 | 6.4 | 17.7 | 0.03 | 0.18 | 0.18 | 89 | 1007.3 |
| 20260506102837 | 9 | 344 | 6.4 | 17.7 | 0.03 | 0.18 | 0.18 | 89 | 1007.3 |
| 20260506102327 | 9 | 10 | 8.0 | 20.9 | 0.03 | 0.18 | 0.18 | 89 | 1007.2 |
| 20260506101819 | 9 | 329 | 8.0 | 20.9 | 0.03 | 0.18 | 0.18 | 90 | 1007.2 |
| 20260506101319 | 10 | 11 | 6.4 | 16.1 | 0.03 | 0.18 | 0.18 | 90 | 1007.1 |
| 20260506100815 | 10 | 1 | 6.4 | 19.3 | 0.03 | 0.18 | 0.18 | 90 | 1007.1 |
| 20260506100407 | 9 | 6 | 8.0 | 19.3 | 0.00 | 0.15 | 0.15 | 90 | 1007.0 |
| 20260506095853 | 9 | 23 | 8.0 | 19.3 | 0.00 | 0.15 | 0.15 | 89 | 1007.0 |
| 20260506095349 | 9 | 356 | 4.8 | 12.9 | 0.00 | 0.15 | 0.15 | 90 | 1006.8 |
| 20260506095345 | 9 | 333 | 8.0 | 16.1 | 0.00 | 0.15 | 0.15 | 90 | 1007.0 |
| 20260506094837 | 9 | 328 | 6.4 | 14.5 | 0.00 | 0.15 | 0.15 | 90 | 1007.0 |
| 20260506093820 | 10 | 346 | 6.4 | 16.1 | 0.00 | 0.15 | 0.15 | 91 | 1006.8 |
| 20260506093815 | 10 | 343 | 6.4 | 16.1 | 0.00 | 0.15 | 0.15 | 90 | 1006.8 |
| 20260506093307 | 10 | 6 | 6.4 | 12.9 | 0.00 | 0.15 | 0.15 | 92 | 1006.8 |
| 20260506092904 | 10 | 319 | 6.4 | 12.9 | 0.00 | 0.15 | 0.15 | 91 | 1006.8 |
| 20260506091840 | 10 | 295 | 6.4 | 17.7 | 0.00 | 0.15 | 0.15 | 92 | 1006.7 |
| 20260506091333 | 10 | 319 | 6.4 | 17.7 | 0.00 | 0.15 | 0.15 | 92 | 1006.6 |
| 20260506090822 | 10 | 356 | 4.8 | 11.3 | 0.00 | 0.15 | 0.15 | 92 | 1006.6 |
| 20260506090315 | 10 | 345 | 4.8 | 9.7 | 0.00 | 0.15 | 0.15 | 93 | 1006.6 |
| 20260506085812 | 9 | 345 | 6.4 | 14.5 | 0.00 | 0.15 | 0.15 | 93 | 1006.6 |
| 20260506085307 | 9 | 307 | 6.4 | 16.1 | 0.03 | 0.15 | 0.15 | 93 | 1006.5 |
| 20260506085305 | 9 | 351 | 6.4 | 16.1 | 0.03 | 0.15 | 0.15 | 93 | 1006.5 |
| 20260506084353 | 9 | 1 | 6.4 | 14.5 | 0.03 | 0.15 | 0.15 | 93 | 1006.5 |
| 20260506083845 | 9 | 1 | 8.0 | 19.3 | 0.03 | 0.15 | 0.15 | 93 | 1006.4 |
| 20260506083334 | 9 | 341 | 8.0 | 19.3 | 0.03 | 0.15 | 0.15 | 93 | 1006.4 |
| 20260506083227 | 9 | 33 | 6.4 | 14.5 | 0.03 | 0.15 | 0.15 | 94 | 1006.4 |
| 20260506082310 | 9 | 338 | 6.4 | 14.5 | 0.03 | 0.15 | 0.15 | 94 | 1006.3 |
| 20260506081803 | 9 | 296 | 6.4 | 17.7 | 0.03 | 0.15 | 0.15 | 94 | 1006.3 |
| 20260506081304 | 9 | 344 | 8.0 | 17.7 | 0.03 | 0.15 | 0.15 | 94 | 1006.3 |
| 20260506080857 | 9 | 1 | 8.0 | 14.5 | 0.03 | 0.15 | 0.15 | 94 | 1006.3 |
| 20260506080347 | 9 | 6 | 8.0 | 14.5 | 0.03 | 0.15 | 0.15 | 94 | 1006.3 |
| 20260506073352 | 8 | 343 | 4.8 | 12.9 | 0.00 | 0.15 | 0.15 | 95 | 1006.2 |
| 20260506072844 | 8 | 319 | 4.8 | 12.9 | 0.00 | 0.15 | 0.15 | 94 | 1006.2 |
| 20260506072334 | 8 | 356 | 4.8 | 12.9 | 0.00 | 0.15 | 0.15 | 94 | 1006.2 |
| 20260506071825 | 8 | 338 | 6.4 | 11.3 | 0.00 | 0.15 | 0.15 | 95 | 1006.1 |
| 20260506071320 | 8 | 341 | 6.4 | 14.5 | 0.00 | 0.15 | 0.15 | 95 | 1006.1 |
| 20260506070810 | 8 | 349 | 4.8 | 14.5 | 0.00 | 0.15 | 0.15 | 95 | 1006.2 |
| 20260506070303 | 8 | 356 | 4.8 | 16.1 | 0.00 | 0.15 | 0.15 | 95 | 1006.2 |
| 20260506062256 | 8 | 14 | 6.4 | 12.9 | 0.03 | 0.15 | 0.15 | 95 | 1005.8 |
| 20260506061747 | 8 | 6 | 6.4 | 12.9 | 0.03 | 0.15 | 0.15 | 95 | 1005.8 |
| 20260506061239 | 8 | 6 | 6.4 | 16.1 | 0.03 | 0.15 | 0.15 | 95 | 1005.8 |
| 20260506060826 | 8 | 328 | 6.4 | 19.3 | 0.03 | 0.15 | 0.15 | 95 | 1005.7 |
| 20260506060332 | 8 | 334 | 8.0 | 19.3 | 0.03 | 0.15 | 0.15 | 95 | 1005.7 |
| 20260506051300 | 8 | 332 | 6.4 | 14.5 | 0.00 | 0.13 | 0.13 | 95 | 1005.7 |
| 20260506050751 | 8 | 344 | 6.4 | 12.9 | 0.00 | 0.13 | 0.13 | 95 | 1005.7 |
| 20260506050637 | 8 | 356 | 4.8 | 14.5 | 0.00 | 0.13 | 0.13 | 95 | 1005.7 |
| 20260506050333 | 8 | 328 | 6.4 | 12.9 | 0.00 | 0.13 | 0.13 | 95 | 1005.7 |
| 20260506044813 | 8 | 274 | 4.8 | 11.3 | 0.03 | 0.15 | 0.13 | 94 | 1005.7 |
| 20260506044304 | 8 | 345 | 4.8 | 11.3 | 0.03 | 0.15 | 0.13 | 94 | 1005.6 |
| 20260506043756 | 8 | 334 | 4.8 | 8.0 | 0.03 | 0.15 | 0.13 | 94 | 1005.7 |
| 20260506043245 | 8 | 316 | 6.4 | 14.5 | 0.03 | 0.15 | 0.13 | 94 | 1005.7 |
| 20260506042736 | 8 | 335 | 6.4 | 14.5 | 0.03 | 0.15 | 0.13 | 94 | 1005.6 |
| 20260506042229 | 8 | 328 | 6.4 | 12.9 | 0.03 | 0.15 | 0.13 | 94 | 1005.6 |
| 20260506041723 | 8 | 356 | 4.8 | 11.3 | 0.03 | 0.15 | 0.13 | 94 | 1005.6 |
| 20260506041604 | 8 | 12 | 4.8 | 12.9 | 0.03 | 0.15 | 0.13 | 94 | 1005.6 |
| 20260506041405 | 8 | 336 | 4.8 | 12.9 | 0.03 | 0.15 | 0.13 | 94 | 1005.6 |
| 20260506040255 | 8 | 356 | 4.8 | 9.7 | 0.03 | 0.15 | 0.13 | 94 | 1005.7 |
| 20260506035746 | 8 | 23 | 3.2 | 9.7 | 0.03 | 0.15 | 0.13 | 94 | 1005.6 |
| 20260506035236 | 8 | 352 | 4.8 | 9.7 | 0.03 | 0.15 | 0.13 | 94 | 1005.7 |
| 20260506034726 | 8 | 18 | 4.8 | 12.9 | 0.00 | 0.13 | 0.10 | 94 | 1005.8 |
| 20260506034722 | 8 | 338 | 4.8 | 11.3 | 0.00 | 0.13 | 0.10 | 94 | 1005.7 |
| 20260506034716 | 8 | 329 | 6.4 | 12.9 | 0.00 | 0.13 | 0.10 | 94 | 1005.7 |
| 20260506033309 | 8 | 324 | 4.8 | 11.3 | 0.00 | 0.13 | 0.10 | 94 | 1005.8 |
| 20260506032801 | 8 | 334 | 3.2 | 8.0 | 0.00 | 0.13 | 0.10 | 94 | 1005.8 |
| 20260506032252 | 8 | 316 | 4.8 | 11.3 | 0.00 | 0.13 | 0.10 | 94 | 1005.7 |
| 20260506031744 | 8 | 311 | 4.8 | 9.7 | 0.00 | 0.13 | 0.10 | 94 | 1005.8 |
| 20260506031237 | 8 | 6 | 3.2 | 12.9 | 0.00 | 0.13 | 0.10 | 94 | 1005.8 |
| 20260506030732 | 8 | 340 | 4.8 | 11.3 | 0.03 | 0.13 | 0.10 | 94 | 1005.9 |
| 20260506030222 | 8 | 322 | 4.8 | 12.9 | 0.03 | 0.13 | 0.10 | 94 | 1006.0 |
| 20260506025711 | 8 | 356 | 4.8 | 12.9 | 0.03 | 0.13 | 0.10 | 94 | 1006.1 |
| 20260506025306 | 8 | 351 | 3.2 | 12.9 | 0.03 | 0.13 | 0.10 | 94 | 1006.0 |
| 20260506024758 | 8 | 348 | 3.2 | 9.7 | 0.03 | 0.13 | 0.10 | 94 | 1006.0 |
| 20260506024250 | 8 | 342 | 3.2 | 8.0 | 0.03 | 0.13 | 0.10 | 94 | 1006.1 |
| 20260506024137 | 8 | 291 | 3.2 | 8.0 | 0.03 | 0.13 | 0.10 | 93 | 1006.1 |
| 20260506023531 | 8 | 347 | 4.8 | 11.3 | 0.03 | 0.13 | 0.10 | 93 | 1006.1 |
| 20260506023027 | 8 | 356 | 4.8 | 11.3 | 0.03 | 0.13 | 0.10 | 93 | 1006.1 |
| 20260506022216 | 8 | 325 | 3.2 | 12.9 | 0.03 | 0.13 | 0.10 | 93 | 1006.2 |
| 20260506021710 | 8 | 323 | 4.8 | 12.9 | 0.03 | 0.13 | 0.10 | 93 | 1006.1 |
| 20260506021205 | 8 | 342 | 4.8 | 12.9 | 0.03 | 0.15 | 0.10 | 93 | 1006.2 |
| 20260506020809 | 8 | 331 | 4.8 | 9.7 | 0.00 | 0.13 | 0.08 | 93 | 1006.2 |
| 20260506020246 | 8 | 330 | 4.8 | 9.7 | 0.00 | 0.13 | 0.08 | 93 | 1006.2 |
| 20260506020136 | 8 | 334 | 3.2 | 9.7 | 0.00 | 0.13 | 0.08 | 93 | 1006.2 |
| 20260506015228 | 8 | 352 | 3.2 | 14.5 | 0.03 | 0.13 | 0.08 | 93 | 1006.3 |
| 20260506014720 | 8 | 6 | 3.2 | 14.5 | 0.03 | 0.13 | 0.08 | 93 | 1006.3 |
| 20260506014211 | 8 | 341 | 3.2 | 8.0 | 0.03 | 0.13 | 0.08 | 93 | 1006.3 |
| 20260506013659 | 8 | 6 | 3.2 | 8.0 | 0.03 | 0.13 | 0.08 | 93 | 1006.3 |
| 20260506013654 | 8 | 320 | 3.2 | 11.3 | 0.03 | 0.13 | 0.08 | 93 | 1006.4 |
| 20260506012750 | 8 | 24 | 3.2 | 11.3 | 0.03 | 0.13 | 0.08 | 93 | 1006.4 |
| 20260506012240 | 8 | 356 | 4.8 | 9.7 | 0.03 | 0.13 | 0.08 | 93 | 1006.4 |
| 20260506011732 | 8 | 349 | 4.8 | 11.3 | 0.03 | 0.13 | 0.08 | 93 | 1006.4 |
| 20260506011526 | 8 | 30 | 3.2 | 11.3 | 0.03 | 0.13 | 0.08 | 93 | 1006.4 |
| 20260506010719 | 8 | 330 | 3.2 | 9.7 | 0.03 | 0.13 | 0.08 | 93 | 1006.5 |
| 20260506010211 | 8 | 346 | 4.8 | 9.7 | 0.03 | 0.13 | 0.08 | 93 | 1006.4 |
| 20260506005704 | 8 | 349 | 4.8 | 9.7 | 0.03 | 0.13 | 0.08 | 93 | 1006.5 |
| 20260506005456 | 8 | 310 | 4.8 | 11.3 | 0.00 | 0.13 | 0.08 | 93 | 1006.6 |
| 20260506005040 | 8 | 356 | 3.2 | 9.7 | 0.03 | 0.13 | 0.05 | 93 | 1006.7 |
| 20260506005036 | 8 | 36 | 3.2 | 11.3 | 0.03 | 0.13 | 0.05 | 93 | 1006.6 |
| 20260506004230 | 8 | 6 | 3.2 | 9.7 | 0.03 | 0.13 | 0.05 | 93 | 1006.7 |
| 20260506003729 | 8 | 324 | 3.2 | 8.0 | 0.03 | 0.13 | 0.05 | 93 | 1006.6 |
| 20260506002714 | 8 | 6 | 1.6 | 9.7 | 0.03 | 0.13 | 0.05 | 93 | 1006.7 |
| 20260506002205 | 8 | 339 | 3.2 | 6.4 | 0.03 | 0.13 | 0.05 | 93 | 1006.7 |
| 20260506001657 | 8 | 337 | 3.2 | 11.3 | 0.03 | 0.13 | 0.05 | 93 | 1006.7 |
| 20260506001151 | 8 | 337 | 3.2 | 11.3 | 0.03 | 0.13 | 0.05 | 93 | 1006.8 |
| 20260506000743 | 8 | 328 | 3.2 | 9.7 | 0.03 | 0.13 | 0.05 | 93 | 1006.8 |
| 20260506000235 | 8 | 341 | 4.8 | 9.7 | 0.05 | 0.13 | 0.05 | 93 | 1006.9 |
| 20260505235727 | 9 | 10 | 3.2 | 9.7 | 0.05 | 0.13 | 0.05 | 92 | 1006.9 |
| 20260505235221 | 9 | 339 | 1.6 | 6.4 | 0.05 | 0.13 | 0.05 | 92 | 1007.0 |
| 20260505235110 | 9 | 345 | 3.2 | 9.7 | 0.03 | 0.10 | 0.05 | 92 | 1007.0 |
| 20260505234205 | 9 | 335 | 3.2 | 9.7 | 0.03 | 0.10 | 0.05 | 92 | 1007.0 |
| 20260505233656 | 9 | 352 | 3.2 | 8.0 | 0.03 | 0.10 | 0.05 | 92 | 1007.1 |
| 20260505233151 | 9 | 345 | 3.2 | 11.3 | 0.03 | 0.10 | 0.05 | 92 | 1007.1 |
| 20260505232740 | 9 | 339 | 4.8 | 12.9 | 0.03 | 0.10 | 0.05 | 92 | 1007.1 |
| 20260505232230 | 9 | 315 | 3.2 | 12.9 | 0.05 | 0.10 | 0.05 | 92 | 1007.1 |
| 20260505231725 | 9 | 349 | 3.2 | 9.7 | 0.05 | 0.10 | 0.05 | 92 | 1007.2 |
| 20260505231217 | 9 | 10 | 3.2 | 9.7 | 0.05 | 0.10 | 0.05 | 91 | 1007.2 |
| 20260505230706 | 9 | 303 | 3.2 | 11.3 | 0.05 | 0.10 | 0.05 | 91 | 1007.2 |
| 20260505230159 | 9 | 10 | 4.8 | 11.3 | 0.03 | 0.08 | 0.03 | 91 | 1007.2 |
| 20260505225651 | 9 | 25 | 4.8 | 9.7 | 0.03 | 0.08 | 0.03 | 91 | 1007.2 |
| 20260505225145 | 9 | 327 | 3.2 | 9.7 | 0.03 | 0.08 | 0.03 | 91 | 1007.3 |
| 20260505224735 | 9 | 351 | 4.8 | 12.9 | 0.03 | 0.08 | 0.03 | 91 | 1007.3 |
| 20260505224227 | 9 | 350 | 4.8 | 12.9 | 0.03 | 0.08 | 0.03 | 91 | 1007.2 |
| 20260505223719 | 9 | 325 | 4.8 | 9.7 | 0.03 | 0.08 | 0.03 | 91 | 1007.3 |
| 20260505223216 | 10 | 10 | 3.2 | 9.7 | 0.03 | 0.10 | 0.03 | 90 | 1007.3 |
| 20260505222707 | 10 | 349 | 3.2 | 6.4 | 0.03 | 0.10 | 0.03 | 90 | 1007.3 |
| 20260505222500 | 10 | 339 | 3.2 | 8.0 | 0.00 | 0.08 | 0.00 | 90 | 1007.3 |
| 20260505221650 | 10 | 347 | 3.2 | 9.7 | 0.00 | 0.08 | 0.00 | 90 | 1007.3 |
| 20260505221143 | 10 | 10 | 4.8 | 11.3 | 0.00 | 0.08 | 0.00 | 89 | 1007.4 |
| 20260505221034 | 10 | 6 | 6.4 | 12.9 | 0.00 | 0.08 | 0.00 | 89 | 1007.4 |
| 20260505220221 | 10 | 346 | 6.4 | 12.9 | 0.00 | 0.08 | 0.00 | 89 | 1007.4 |
| 20260505215710 | 10 | 334 | 4.8 | 12.9 | 0.00 | 0.08 | 0.08 | 89 | 1007.4 |
| 20260505215201 | 10 | 346 | 6.4 | 14.5 | 0.00 | 0.08 | 0.08 | 89 | 1007.4 |
| 20260505214653 | 10 | 329 | 4.8 | 14.5 | 0.00 | 0.08 | 0.08 | 89 | 1007.5 |
| 20260505214148 | 10 | 6 | 3.2 | 8.0 | 0.00 | 0.10 | 0.08 | 89 | 1007.5 |
| 20260505213638 | 10 | 340 | 4.8 | 11.3 | 0.00 | 0.10 | 0.08 | 89 | 1007.5 |
| 20260505213228 | 10 | 336 | 4.8 | 11.3 | 0.00 | 0.10 | 0.08 | 89 | 1007.6 |
| 20260505212721 | 10 | 25 | 4.8 | 11.3 | 0.00 | 0.10 | 0.08 | 89 | 1007.6 |
| 20260505212307 | 10 | 6 | 4.8 | 11.3 | 0.00 | 0.13 | 0.08 | 89 | 1007.5 |
| 20260505212046 | 10 | 314 | 4.8 | 11.3 | 0.00 | 0.13 | 0.08 | 89 | 1007.6 |
| 20260505211253 | 10 | 6 | 6.4 | 14.5 | 0.00 | 0.13 | 0.08 | 89 | 1007.6 |
| 20260505211053 | 10 | 335 | 6.4 | 14.5 | 0.00 | 0.13 | 0.08 | 89 | 1007.6 |
| 20260505210231 | 10 | 349 | 4.8 | 12.9 | 0.00 | 0.13 | 0.08 | 89 | 1007.7 |
| 20260505210034 | 10 | 19 | 6.4 | 11.3 | 0.00 | 0.15 | 0.08 | 89 | 1007.8 |
| 20260505205315 | 10 | 332 | 6.4 | 14.5 | 0.00 | 0.15 | 0.08 | 89 | 1007.7 |
| 20260505205118 | 10 | 10 | 6.4 | 14.5 | 0.00 | 0.15 | 0.08 | 89 | 1007.7 |
| 20260505204259 | 10 | 1 | 4.8 | 14.5 | 0.00 | 0.15 | 0.08 | 89 | 1007.8 |